WA6MEM Weather Reports


time (UTC)temp
C
wind
direction
speed
KPH
gust
KPH
rain 1hr
cm
rain 24hr
cm
rain mn
cm
humidity
%
barometer
mb
20210723153548 17 209 0.0 0.0 0.00 0.00 0.00 97 1016.1
20210723153117 17 209 0.0 0.0 0.00 0.00 0.00 97 1016.0
20210723152638 17 250 0.0 0.0 0.00 0.00 0.00 97 1016.0
20210723152047 17 256 0.0 0.0 0.00 0.00 0.00 97 1016.0
20210723151627 17 231 0.0 0.0 0.00 0.00 0.00 97 1015.8
20210723151047 17 231 0.0 0.0 0.00 0.00 0.00 97 1015.8
20210723150610 16 231 0.0 0.0 0.00 0.00 0.00 97 1015.8
20210723150048 17 231 0.0 0.0 0.00 0.00 0.00 97 1015.5
20210723145546 17 231 0.0 0.0 0.00 0.00 0.00 97 1015.5
20210723145045 17 231 0.0 0.0 0.00 0.00 0.00 97 1015.5
20210723144616 16 229 0.0 0.0 0.00 0.00 0.00 97 1015.9
20210723144104 16 223 0.0 0.0 0.00 0.00 0.00 97 1015.9
20210723143545 16 208 0.0 0.0 0.00 0.00 0.00 97 1015.9
20210723143109 16 209 0.0 0.0 0.00 0.00 0.00 97 1015.5
20210723142544 16 215 0.0 0.0 0.00 0.00 0.00 97 1015.5
20210723142049 16 215 0.0 0.0 0.00 0.00 0.00 97 1015.5
20210723141614 16 223 0.0 0.0 0.00 0.00 0.00 97 1015.2
20210723141043 16 223 0.0 0.0 0.00 0.00 0.00 97 1015.2
20210723140543 16 224 0.0 0.0 0.00 0.00 0.00 97 1015.2
20210723140149 16 225 0.0 0.0 0.00 0.00 0.00 97 1015.2
20210723135543 16 225 0.0 0.0 0.00 0.00 0.00 97 1015.2
20210723135043 16 225 0.0 0.0 0.00 0.00 0.00 97 1015.2
20210723134743 16 225 0.0 0.0 0.00 0.00 0.00 97 1015.1
20210723134044 16 238 0.0 0.0 0.00 0.00 0.00 97 1015.1
20210723133543 16 183 0.0 0.0 0.00 0.00 0.00 97 1015.1
20210723133121 16 182 0.0 0.0 0.00 0.00 0.00 97 1014.8
20210723132546 16 204 0.0 0.0 0.00 0.00 0.00 97 1014.8
20210723132041 16 204 0.0 0.0 0.00 0.00 0.00 97 1014.8
20210723131636 16 204 0.0 0.0 0.00 0.00 0.00 97 1014.6
20210723131040 16 204 0.0 0.0 0.00 0.00 0.00 97 1014.6
20210723130540 16 204 0.0 0.0 0.00 0.00 0.00 97 1014.6
20210723130106 16 204 0.0 0.0 0.00 0.00 0.00 97 1014.6
20210723125545 16 204 0.0 0.0 0.00 0.00 0.00 97 1014.6
20210723125051 16 204 0.0 0.0 0.00 0.00 0.00 97 1014.6
20210723124612 16 204 0.0 0.0 0.00 0.00 0.00 97 1014.6
20210723124040 16 204 0.0 0.0 0.00 0.00 0.00 97 1014.6
20210723123539 16 175 0.0 0.0 0.00 0.00 0.00 97 1014.6
20210723123100 16 174 0.0 0.0 0.00 0.00 0.00 97 1014.5
20210723122559 16 176 0.0 0.0 0.00 0.00 0.00 97 1014.5
20210723122039 16 119 0.0 0.0 0.00 0.00 0.00 97 1014.5
20210723121649 16 117 0.0 0.0 0.00 0.00 0.00 97 1014.1
20210723121038 16 92 0.0 0.0 0.00 0.00 0.00 97 1014.1
20210723120542 16 99 0.0 0.0 0.00 0.00 0.00 97 1014.1
20210723120158 16 85 0.0 0.0 0.00 0.00 0.00 97 1014.2
20210723115550 16 87 0.0 0.0 0.00 0.00 0.00 97 1014.2
20210723115046 16 96 0.0 0.0 0.00 0.00 0.00 97 1014.2
20210723114704 16 96 0.0 0.0 0.00 0.00 0.00 97 1014.3
20210723114037 16 142 0.0 0.0 0.00 0.00 0.00 97 1014.3
20210723113538 16 146 0.0 0.0 0.00 0.00 0.00 97 1014.3
20210723113138 16 115 0.0 0.0 0.00 0.00 0.00 96 1014.1
20210723112540 16 150 0.0 0.0 0.00 0.00 0.00 96 1014.1
20210723112036 16 150 0.0 0.0 0.00 0.00 0.00 96 1014.1
20210723111549 16 150 0.0 0.0 0.00 0.00 0.00 96 1014.1
20210723111041 16 150 0.0 0.0 0.00 0.00 0.00 96 1014.1
20210723110535 16 150 0.0 0.0 0.00 0.00 0.00 96 1014.1
20210723110117 16 150 0.0 0.0 0.00 0.00 0.00 97 1014.1
20210723105543 16 150 0.0 0.0 0.00 0.00 0.00 96 1014.1
20210723105045 16 150 0.0 0.0 0.00 0.00 0.00 97 1014.1
20210723104610 16 150 0.0 0.0 0.00 0.00 0.00 96 1014.1
20210723104036 16 150 0.0 0.0 0.00 0.00 0.00 96 1014.1
20210723103534 16 150 0.0 0.0 0.00 0.00 0.00 96 1014.1
20210723103104 16 150 0.0 0.0 0.00 0.00 0.00 96 1014.0
20210723102536 16 150 0.0 0.0 0.00 0.00 0.00 96 1014.0
20210723102033 16 101 0.0 0.0 0.00 0.00 0.00 96 1014.0
20210723101606 16 101 0.0 0.0 0.00 0.00 0.00 96 1014.0
20210723101045 16 101 0.0 0.0 0.00 0.00 0.00 96 1014.0
20210723100532 16 141 0.0 0.0 0.00 0.00 0.00 96 1014.0
20210723100146 16 123 0.0 0.0 0.00 0.00 0.00 96 1014.1
20210723095532 16 123 0.0 0.0 0.00 0.00 0.00 96 1014.1
20210723095038 16 123 0.0 0.0 0.00 0.00 0.00 96 1014.1
20210723094540 16 123 0.0 0.0 0.00 0.00 0.00 96 1014.0
20210723094046 16 123 0.0 0.0 0.00 0.00 0.00 96 1014.0
20210723093533 16 115 0.0 0.0 0.00 0.00 0.00 96 1014.0
20210723093202 16 71 0.0 0.0 0.00 0.00 0.00 96 1014.0
20210723092531 16 46 0.0 0.0 0.00 0.00 0.00 96 1014.0
20210723092035 16 30 0.0 0.0 0.00 0.00 0.00 96 1014.0
20210723091638 16 82 0.0 0.0 0.00 0.00 0.00 96 1014.0
20210723091037 16 46 0.0 0.0 0.00 0.00 0.00 96 1014.0
20210723090534 16 28 0.0 0.0 0.00 0.00 0.00 96 1014.0
20210723090108 16 61 0.0 0.0 0.00 0.00 0.00 96 1013.8
20210723085529 16 55 0.0 0.0 0.00 0.00 0.00 96 1013.8
20210723085033 16 50 0.0 0.0 0.00 0.00 0.00 96 1013.8
20210723084624 16 42 0.0 0.0 0.00 0.00 0.00 96 1013.8
20210723084028 16 61 0.0 0.0 0.00 0.00 0.00 96 1013.8
20210723083551 16 61 0.0 0.0 0.00 0.00 0.00 96 1013.8
20210723083101 16 41 0.0 0.0 0.00 0.00 0.00 96 1014.0
20210723082528 16 49 0.0 0.0 0.00 0.00 0.00 96 1014.0
20210723082039 16 30 0.0 0.0 0.00 0.00 0.00 96 1014.0
20210723081605 16 63 0.0 0.0 0.00 0.00 0.00 96 1014.1
20210723081033 16 39 0.0 0.0 0.00 0.00 0.00 96 1014.1
20210723080525 16 80 0.0 0.0 0.00 0.00 0.00 96 1014.1
20210723080053 16 32 1.6 0.0 0.00 0.00 0.00 96 1014.6
20210723075525 16 19 1.6 0.0 0.00 0.00 0.00 96 1014.6
20210723075027 16 76 0.0 0.0 0.00 0.00 0.00 96 1014.6
20210723074610 16 84 0.0 0.0 0.00 0.00 0.00 96 1014.6
20210723074024 16 63 0.0 0.0 0.00 0.00 0.00 95 1014.6
20210723073526 16 86 0.0 0.0 0.00 0.00 0.00 95 1014.6
20210723073046 16 77 0.0 0.0 0.00 0.00 0.00 95 1014.6
20210723072523 16 48 0.0 0.0 0.00 0.00 0.00 95 1014.6
20210723072028 16 101 0.0 0.0 0.00 0.00 0.00 95 1014.6
20210723071606 16 101 0.0 0.0 0.00 0.00 0.00 95 1014.6
20210723071026 16 144 0.0 0.0 0.00 0.00 0.00 95 1014.6
20210723070522 16 86 0.0 0.0 0.00 0.00 0.00 95 1014.6
20210723070041 16 42 0.0 0.0 0.00 0.00 0.00 95 1014.6
20210723065521 16 57 0.0 0.0 0.00 0.00 0.00 95 1014.6
20210723065021 16 40 0.0 0.0 0.00 0.00 0.00 95 1014.6
20210723064549 16 53 0.0 0.0 0.00 0.00 0.00 95 1014.6
20210723064024 16 32 1.6 0.0 0.00 0.00 0.00 95 1014.6
20210723063521 16 46 1.6 0.0 0.00 0.00 0.00 95 1014.6
20210723063027 16 44 1.6 0.0 0.00 0.00 0.00 95 1014.6
20210723062520 16 29 3.2 0.0 0.00 0.00 0.00 95 1014.6
20210723062022 16 70 1.6 0.0 0.00 0.00 0.00 95 1014.6
20210723061557 16 54 1.6 0.0 0.00 0.00 0.00 95 1014.8
20210723061020 16 40 0.0 0.0 0.00 0.00 0.00 95 1014.8
20210723060528 16 85 0.0 0.0 0.00 0.00 0.00 94 1014.8
20210723060052 16 52 0.0 0.0 0.00 0.00 0.00 94 1014.9
20210723055519 16 84 1.6 0.0 0.00 0.00 0.00 94 1014.9
20210723055022 16 24 1.6 0.0 0.00 0.00 0.00 94 1014.9
20210723054544 16 36 0.0 0.0 0.00 0.00 0.00 94 1014.9
20210723054019 16 34 0.0 0.0 0.00 0.00 0.00 94 1014.9
20210723053519 16 59 0.0 0.0 0.00 0.00 0.00 94 1014.9
20210723053158 16 53 0.0 0.0 0.00 0.00 0.00 94 1015.0
20210723052519 16 46 0.0 0.0 0.00 0.00 0.00 93 1015.0
20210723052019 17 46 0.0 0.0 0.00 0.00 0.00 93 1015.0
20210723051527 17 46 0.0 0.0 0.00 0.00 0.00 93 1015.2
20210723051018 17 28 0.0 0.0 0.00 0.00 0.00 93 1015.2
20210723050517 17 47 0.0 0.0 0.00 0.00 0.00 93 1015.2
20210723050027 17 44 0.0 0.0 0.00 0.00 0.00 93 1015.2
20210723045517 17 12 0.0 0.0 0.00 0.00 0.00 93 1015.2
20210723045017 17 12 0.0 0.0 0.00 0.00 0.00 93 1015.2
20210723044547 17 12 0.0 0.0 0.00 0.00 0.00 93 1015.1
20210723044017 17 282 0.0 0.0 0.00 0.00 0.00 93 1015.1
20210723043522 17 108 0.0 0.0 0.00 0.00 0.00 93 1015.1
20210723043040 17 108 0.0 0.0 0.00 0.00 0.00 93 1014.7
20210723042515 17 115 0.0 0.0 0.00 0.00 0.00 93 1014.7
20210723042021 17 53 0.0 0.0 0.00 0.00 0.00 93 1014.7
20210723041533 17 219 0.0 0.0 0.00 0.00 0.00 92 1014.7
20210723041025 17 214 0.0 0.0 0.00 0.00 0.00 92 1014.7
20210723040544 17 214 0.0 0.0 0.00 0.00 0.00 92 1014.7
20210723040020 17 215 0.0 0.0 0.00 0.00 0.00 91 1014.4
20210723035514 17 214 0.0 0.0 0.00 0.00 0.00 91 1014.4
20210723035018 17 214 0.0 0.0 0.00 0.00 0.00 91 1014.4
20210723034514 17 214 0.0 0.0 0.00 0.00 0.00 91 1014.2
20210723034017 17 214 0.0 0.0 0.00 0.00 0.00 90 1014.2
20210723033514 17 212 0.0 0.0 0.00 0.00 0.00 90 1014.2
20210723033017 17 210 0.0 0.0 0.00 0.00 0.00 90 1013.9
20210723032513 18 210 0.0 0.0 0.00 0.00 0.00 89 1013.9
20210723032013 18 210 0.0 0.0 0.00 0.00 0.00 89 1013.9
20210723031515 18 211 0.0 0.0 0.00 0.00 0.00 88 1013.7
20210723031019 18 210 0.0 0.0 0.00 0.00 0.00 87 1013.7
20210723030517 18 211 0.0 0.0 0.00 0.00 0.00 87 1013.7
20210723030050 18 210 0.0 0.0 0.00 0.00 0.00 86 1013.4
20210723025531 18 211 0.0 0.0 0.00 0.00 0.00 85 1013.4
20210723025011 19 211 0.0 0.0 0.00 0.00 0.00 84 1013.4
20210723024511 19 211 0.0 0.0 0.00 0.00 0.00 83 1013.2
20210723024017 20 210 0.0 0.0 0.00 0.00 0.00 83 1013.2
20210723023515 20 211 0.0 0.0 0.00 0.00 0.00 81 1013.2
20210723023027 20 145 0.0 0.0 0.00 0.00 0.00 81 1012.9
20210723022516 20 92 0.0 0.0 0.00 0.00 0.00 80 1012.9
20210723022016 21 40 0.0 0.0 0.00 0.00 0.00 80 1012.9
20210723021551 21 103 0.0 0.0 0.00 0.00 0.00 80 1012.8
20210723021010 21 17 0.0 0.0 0.00 0.00 0.00 80 1012.8
20210723020509 21 74 0.0 0.0 0.00 0.00 0.00 80 1012.8
20210723020011 21 30 0.0 0.0 0.00 0.00 0.00 81 1012.7
20210723015509 21 227 0.0 0.0 0.00 0.00 0.00 81 1012.7
20210723015009 21 227 0.0 0.0 0.00 0.00 0.00 80 1012.7
20210723014522 21 223 0.0 0.0 0.00 0.00 0.00 80 1012.6
20210723014014 21 215 0.0 0.0 0.00 0.00 0.00 79 1012.6
20210723013508 21 209 0.0 0.0 0.00 0.00 0.00 78 1012.6
20210723013009 22 206 0.0 0.0 0.00 0.00 0.00 78 1012.6
20210723012511 21 225 0.0 0.0 0.00 0.00 0.00 79 1012.6
20210723012008 21 298 0.0 0.0 0.00 0.00 0.00 80 1012.6
20210723011522 21 298 0.0 0.0 0.00 0.00 0.00 80 1012.8
20210723011008 21 239 0.0 0.0 0.00 0.00 0.00 78 1012.8
20210723010523 21 256 0.0 0.0 0.00 0.00 0.00 78 1012.8
20210723010034 22 210 0.0 0.0 0.00 0.00 0.00 76 1012.4
20210723005508 22 198 0.0 0.0 0.00 0.00 0.00 76 1012.4
20210723005007 22 159 1.6 0.0 0.00 0.00 0.00 76 1012.4
20210723004514 22 126 0.0 0.0 0.00 0.00 0.00 75 1012.6
20210723004007 22 40 0.0 0.0 0.00 0.00 0.00 77 1012.6
20210723003511 22 255 0.0 0.0 0.00 0.00 0.00 78 1012.6
20210723003021 22 241 0.0 0.0 0.00 0.00 0.00 79 1012.7
20210723002523 22 207 0.0 0.0 0.00 0.00 0.00 79 1012.7
20210723002006 22 215 0.0 0.0 0.00 0.00 0.00 79 1012.7
20210723001540 22 215 0.0 0.0 0.00 0.00 0.00 77 1012.4
20210723001006 22 212 0.0 0.0 0.00 0.00 0.00 77 1012.4
20210723000511 22 259 0.0 0.0 0.00 0.00 0.00 78 1012.4
20210723000006 22 230 0.0 0.0 0.00 0.00 0.00 79 1012.6
20210722235506 22 200 0.0 0.0 0.00 0.00 0.00 79 1012.6
20210722235008 21 207 0.0 0.0 0.00 0.00 0.00 79 1012.6
20210722234523 22 213 0.0 0.0 0.00 0.00 0.00 79 1012.6
20210722234010 22 200 0.0 0.0 0.00 0.00 0.00 78 1012.6
20210722233516 22 232 0.0 0.0 0.00 0.00 0.00 79 1012.6
20210722233036 22 189 0.0 0.0 0.00 0.00 0.00 79 1012.8
20210722232509 21 186 0.0 0.0 0.00 0.00 0.00 80 1012.8
20210722232005 21 223 0.0 0.0 0.00 0.00 0.00 80 1012.8
20210722231507 21 229 0.0 0.0 0.00 0.00 0.00 79 1012.7
20210722231005 21 192 0.0 0.0 0.00 0.00 0.00 80 1012.7
20210722230504 22 191 0.0 0.0 0.00 0.00 0.00 79 1012.7
20210722230008 22 196 0.0 0.0 0.00 0.00 0.00 78 1012.4
20210722225504 22 242 0.0 0.0 0.00 0.00 0.00 78 1012.4
20210722225006 22 211 0.0 0.0 0.00 0.00 0.00 78 1012.4
20210722224510 22 244 1.6 0.0 0.00 0.00 0.00 77 1012.7
20210722224007 22 223 1.6 0.0 0.00 0.00 0.00 77 1012.7
20210722223504 22 242 1.6 0.0 0.00 0.00 0.00 78 1012.7
20210722223004 22 180 0.0 0.0 0.00 0.00 0.00 77 1012.6
20210722222507 23 213 0.0 0.0 0.00 0.00 0.00 75 1012.6
20210722222008 23 218 0.0 0.0 0.00 0.00 0.00 73 1012.6
20210722221504 23 190 1.6 0.0 0.00 0.00 0.00 74 1012.8
20210722221000 23 238 1.6 0.0 0.00 0.00 0.00 75 1012.8
20210722220113 23 229 0.0 0.0 0.00 0.00 0.00 74 1012.8
20210722215600 23 207 0.0 0.0 0.00 0.00 0.00 74 1012.8
20210722215100 23 221 0.0 0.0 0.00 0.00 0.00 74 1012.8
20210722214812 23 186 0.0 0.0 0.00 0.00 0.00 74 1012.8
20210722214113 23 233 0.0 0.0 0.00 0.00 0.00 75 1012.8
20210722213604 23 183 0.0 0.0 0.00 0.00 0.00 75 1012.8
20210722213146 23 236 1.6 0.0 0.00 0.00 0.00 75 1012.9
20210722212559 23 236 3.2 0.0 0.00 0.00 0.00 75 1012.9
20210722212058 23 129 3.2 0.0 0.00 0.00 0.00 74 1012.9
20210722211723 23 241 1.6 0.0 0.00 0.00 0.00 75 1013.2
20210722211059 23 239 1.6 0.0 0.00 0.00 0.00 74 1013.2
20210722210601 23 202 0.0 0.0 0.00 0.00 0.00 76 1013.2
20210722210114 23 202 0.0 0.0 0.00 0.00 0.00 77 1013.3
20210722205556 22 259 1.6 0.0 0.00 0.00 0.00 77 1013.3
20210722205121 22 229 1.6 0.0 0.00 0.00 0.00 77 1013.3
20210722204746 22 161 1.6 0.0 0.00 0.00 0.00 77 1013.3
20210722204107 22 237 1.6 0.0 0.00 0.00 0.00 77 1013.3
20210722203613 22 216 1.6 0.0 0.00 0.00 0.00 77 1013.3
20210722203157 22 225 1.6 0.0 0.00 0.00 0.00 76 1013.2
20210722202554 22 213 1.6 0.0 0.00 0.00 0.00 76 1013.2
20210722202053 22 244 0.0 0.0 0.00 0.00 0.00 77 1013.2
20210722201727 22 221 0.0 0.0 0.00 0.00 0.00 77 1013.3
20210722201110 22 223 1.6 0.0 0.00 0.00 0.00 78 1013.3
20210722200600 22 195 1.6 0.0 0.00 0.00 0.00 77 1013.3
20210722200240 21 238 1.6 0.0 0.00 0.00 0.00 78 1013.3
20210722195553 22 234 3.2 0.0 0.00 0.00 0.00 77 1013.3
20210722195052 22 209 3.2 0.0 0.00 0.00 0.00 77 1013.3
20210722194638 22 207 1.6 0.0 0.00 0.00 0.00 75 1013.3
20210722194051 22 234 1.6 0.0 0.00 0.00 0.00 77 1013.3
20210722193551 22 159 0.0 0.0 0.00 0.00 0.00 77 1013.3
20210722193216 22 219 0.0 0.0 0.00 0.00 0.00 77 1013.3
20210722192550 22 244 1.6 0.0 0.00 0.00 0.00 78 1013.3
20210722192048 22 233 1.6 0.0 0.00 0.00 0.00 78 1013.3
20210722191653 22 192 0.0 0.0 0.00 0.00 0.00 78 1013.2
20210722191048 21 239 0.0 0.0 0.00 0.00 0.00 79 1013.2
20210722190551 21 225 1.6 0.0 0.00 0.00 0.00 80 1013.2
20210722190117 21 183 1.6 0.0 0.00 0.00 0.00 79 1013.2
20210722185548 21 217 1.6 0.0 0.00 0.00 0.00 78 1013.2
20210722185051 22 242 1.6 0.0 0.00 0.00 0.00 79 1013.2
20210722184648 22 232 1.6 0.0 0.00 0.00 0.00 78 1013.2
20210722184114 21 235 0.0 0.0 0.00 0.00 0.00 80 1013.2
20210722183609 21 234 1.6 0.0 0.00 0.00 0.00 81 1013.2
20210722183134 21 230 1.6 0.0 0.00 0.00 0.00 82 1013.4
20210722182546 20 230 0.0 0.0 0.00 0.00 0.00 83 1013.4
20210722182103 20 213 0.0 0.0 0.00 0.00 0.00 84 1013.4
20210722181614 20 254 0.0 0.0 0.00 0.00 0.00 84 1013.1
20210722181103 20 215 1.6 0.0 0.00 0.00 0.00 82 1013.1
20210722180603 21 183 1.6 0.0 0.00 0.00 0.00 80 1013.1
20210722180058 21 219 1.6 0.0 0.00 0.00 0.00 81 1012.8
20210722175544 21 239 1.6 0.0 0.00 0.00 0.00 80 1012.8
20210722175053 21 232 1.6 0.0 0.00 0.00 0.00 81 1012.8
20210722174604 21 227 1.6 0.0 0.00 0.00 0.00 81 1012.7
20210722174043 21 192 1.6 0.0 0.00 0.00 0.00 81 1012.7
20210722173612 21 191 1.6 0.0 0.00 0.00 0.00 81 1012.7
20210722173124 21 251 0.0 0.0 0.00 0.00 0.00 80 1012.7
20210722172547 21 219 0.0 0.0 0.00 0.00 0.00 81 1012.7
20210722172102 21 243 0.0 0.0 0.00 0.00 0.00 82 1012.7
20210722171657 21 217 0.0 0.0 0.00 0.00 0.00 82 1012.6
20210722171040 21 195 0.0 0.0 0.00 0.00 0.00 83 1012.6
20210722170545 21 258 0.0 0.0 0.00 0.00 0.00 85 1012.6
20210722170122 20 227 0.0 0.0 0.00 0.00 0.00 86 1012.7
20210722165539 20 210 0.0 0.0 0.00 0.00 0.00 86 1012.7
20210722165040 20 190 1.6 0.0 0.00 0.00 0.00 86 1012.7
20210722164606 20 183 0.0 0.0 0.00 0.00 0.00 87 1012.6
20210722164035 20 251 0.0 0.0 0.00 0.00 0.00 86 1012.6
20210722163538 20 205 1.6 0.0 0.00 0.00 0.00 86 1012.6
20210722163154 20 232 1.6 0.0 0.00 0.00 0.00 87 1012.5
20210722162533 20 227 0.0 0.0 0.00 0.00 0.00 87 1012.5
20210722162033 20 197 1.6 0.0 0.00 0.00 0.00 87 1012.5
20210722161548 20 244 1.6 0.0 0.00 0.00 0.00 88 1012.2
20210722161038 20 211 0.0 0.0 0.00 0.00 0.00 89 1012.2
20210722160538 20 236 0.0 0.0 0.00 0.00 0.00 89 1012.2
20210722160109 20 234 0.0 0.0 0.00 0.00 0.00 89 1012.1
20210722155530 19 252 0.0 0.0 0.00 0.00 0.00 91 1012.1
20210722155036 19 213 0.0 0.0 0.00 0.00 0.00 90 1012.1
20210722154602 19 196 0.0 0.0 0.00 0.00 0.00 91 1012.1
20210722154029 18 225 0.0 0.0 0.00 0.00 0.00 91 1012.1